This demonstration page uses our WeatherBlox Daily Observations layout. Learn more.

40.92945, -100.16068

Hourly Observations for January 23, 2015

Temp ( °F °C ) Dew Point ( °F °C ) Humidity (%) Winds ( mph kmh ) Pressure ( in mb ) Visibility ( mi km ) Precip ( " mm )
12:15 am 00:15 Clear 24 -4.2 18 -7.6 77 77 SW 6 9 30.36 1028 10 16.0934 N/A
12:35 am 00:35 Clear 23 -5.2 18 -8 81 81 Calm 30.36 1028 10 16.0934 N/A
12:55 am 00:55 Clear 23 -5.2 18 -8 81 81 Calm 30.33 1027 10 16.0934 N/A
1:15 am 01:15 Clear 19 -7.3 14 -10 81 81 Calm 30.36 1028 10 16.0934 N/A
1:35 am 01:35 Clear 20 -6.5 16 -8.7 85 85 Calm 30.33 1027 10 16.0934 N/A
1:55 am 01:55 Clear 17 -8.2 12 -10.9 81 81 WNW 3 6 30.36 1028 10 16.0934 N/A
2:15 am 02:15 Clear 21 -6 16 -8.8 81 81 WNW 3 6 30.33 1027 10 16.0934 N/A
2:35 am 02:35 Clear 22 -5.4 17 -8.1 82 82 WSW 3 6 30.33 1027 10 16.0934 N/A
2:55 am 02:55 Clear 22 -5.7 17 -8.5 81 81 WSW 3 6 30.3 1026 10 16.0934 N/A
3:15 am 03:15 Clear 23 -5.2 17 -8.5 78 78 WSW 5 7 30.3 1026 10 16.0934 N/A
3:35 am 03:35 Clear 21 -6.3 16 -8.7 83 83 SW 5 7 30.3 1026 10 16.0934 N/A
3:55 am 03:55 Clear 20 -6.6 16 -8.8 85 85 SW 6 9 30.27 1025 10 16.0934 N/A
4:15 am 04:15 Clear 20 -6.4 17 -8.5 85 85 SW 7 11 30.27 1025 10 16.0934 N/A
4:35 am 04:35 Clear 20 -6.6 16 -9.1 83 83 W 6 9 30.27 1025 10 16.0934 N/A
4:55 am 04:55 Clear 21 -6.3 17 -8.5 85 85 WSW 5 7 30.27 1025 10 16.0934 N/A
5:15 am 05:15 Clear 19 -7.5 15 -9.6 85 85 W 6 9 30.27 1025 10 16.0934 N/A
5:35 am 05:35 Clear 15 -9.7 11 -11.5 87 87 NW 6 9 30.27 1025 10 16.0934 N/A
5:55 am 05:55 Clear 14 -10 11 -11.6 88 88 NW 5 7 30.27 1025 10 16.0934 N/A
6:15 am 06:15 Clear 13 -10.4 11 -11.8 90 90 NW 5 7 30.27 1025 10 16.0934 N/A
6:35 am 06:35 Clear 14 -9.9 11 -11.5 88 88 WNW 7 11 30.27 1025 10 16.0934 N/A
6:55 am 06:55 Clear 17 -8.6 13 -10.3 88 88 WNW 6 9 30.27 1025 10 16.0934 N/A
7:15 am 07:15 Clear 17 -8.5 13 -10.5 86 86 WNW 8 13 30.27 1025 10 16.0934 N/A
7:35 am 07:35 Clear 16 -9 12 -11 86 86 WNW 5 7 30.24 1024 10 16.0934 N/A
7:55 am 07:55 Clear 17 -8.3 13 -10.3 86 86 W 8 13 30.24 1024 10 16.0934 N/A
8:15 am 08:15 Sunny 17 -8.4 14 -10.2 87 87 WNW 6 9 30.24 1024 10 16.0934 N/A
8:35 am 08:35 Sunny 19 -7.3 15 -9.2 86 86 WNW 8 13 30.21 1023 10 16.0934 N/A
8:55 am 08:55 Sunny 21 -6.1 17 -8.5 83 83 WNW 6 9 30.21 1023 10 16.0934 N/A
9:15 am 09:15 Sunny 21 -6.2 17 -8.6 83 83 WNW 9 15 30.21 1023 10 16.0934 N/A
9:35 am 09:35 Sunny 24 -4.4 20 -6.8 84 84 WNW 13 20 30.18 1022 10 16.0934 N/A
9:55 am 09:55 Sunny 27 -2.7 21 -5.9 79 79 WNW 15 24 30.18 1022 10 16.0934 N/A
10:15 am 10:15 Sunny 30 -0.9 24 -4.6 76 76 WNW 12 19 30.15 1021 10 16.0934 N/A
10:35 am 10:35 Sunny 34 1.3 25 -3.9 69 69 NW 15 24 30.12 1020 10 16.0934 N/A
10:55 am 10:55 Sunny 35 1.6 25 -3.7 68 68 WNW 14 22 30.15 1021 10 16.0934 N/A
11:15 am 11:15 Mostly Cloudy 37 2.7 26 -3.6 64 64 WNW 10 17 30.12 1020 10 16.0934 N/A
11:35 am 11:35 Mostly Cloudy 39 4.1 26 -3.4 58 58 WNW 10 17 30.09 1019 10 16.0934 N/A
11:55 am 11:55 Mostly Cloudy 42 5.8 26 -3.1 53 53 NW 10 17 30.09 1019 10 16.0934 N/A
12:15 pm 12:15 Mostly Cloudy 47 8.1 27 -2.6 47 47 NW 17 28 30.06 1018 10 16.0934 N/A
12:35 pm 12:35 Cloudy 48 8.9 26 -3.2 43 43 NW 13 20 30.06 1018 10 16.0934 N/A
12:55 pm 12:55 Cloudy 48 8.7 26 -3.4 43 43 NW 16 26 30.06 1018 10 16.0934 N/A
1:15 pm 13:15 Cloudy 47 8.5 26 -3.2 44 44 NNW 17 28 30.06 1018 10 16.0934 N/A
1:35 pm 13:35 Cloudy 49 9.2 26 -3.1 42 42 NW 20 31 30.06 1018 10 16.0934 N/A
1:55 pm 13:55 Cloudy 49 9.5 26 -3.1 41 41 NW 15 24 30 1016 10 16.0934 N/A
2:15 pm 14:15 Mostly Cloudy 51 10.4 27 -2.6 40 40 NW 18 30 30 1016 10 16.0934 N/A
2:35 pm 14:35 Mostly Cloudy 51 10.6 28 -2.3 41 41 NNW 21 33 30 1016 10 16.0934 N/A
2:55 pm 14:55 Cloudy 52 11 28 -2.2 40 40 NNW 18 30 30 1016 10 16.0934 N/A
3:15 pm 15:15 Cloudy 51 10.5 28 -2 42 42 NNW 21 33 30.03 1017 10 16.0934 N/A
3:35 pm 15:35 Cloudy 51 10.3 29 -1.6 44 44 NNW 13 20 30.06 1018 10 16.0934 N/A
3:55 pm 15:55 Cloudy 50 10 29 -1.4 45 45 NNW 17 28 30.06 1018 10 16.0934 N/A
4:15 pm 16:15 Cloudy 50 9.8 29 -1.5 46 46 NNW 10 17 30.06 1018 10 16.0934 N/A
4:35 pm 16:35 Cloudy 49 9.5 29 -1.5 47 47 NNW 16 26 30.06 1018 10 16.0934 N/A
4:55 pm 16:55 Cloudy 48 9 29 -1.5 48 48 NNW 18 30 30.06 1018 10 16.0934 N/A
5:15 pm 17:15 Cloudy 47 8.5 29 -1.5 50 50 NNW 15 24 30.06 1018 10 16.0934 N/A
5:35 pm 17:35 Cloudy 46 8 30 -1.3 52 52 NNW 13 20 30.06 1018 10 16.0934 N/A
5:55 pm 17:55 Cloudy 46 7.5 30 -1.2 54 54 NW 12 19 30.09 1019 10 16.0934 N/A
6:15 pm 18:15 Cloudy 43 5.9 29 -1.5 59 59 NW 10 17 30.12 1020 10 16.0934 N/A
6:35 pm 18:35 Mostly Cloudy 42 5.7 30 -1.2 62 62 NW 10 17 30.12 1020 10 16.0934 N/A
6:55 pm 18:55 Partly Cloudy 39 4.1 29 -1.7 66 66 NW 10 17 30.15 1021 10 16.0934 N/A
7:15 pm 19:15 Clear 38 3.4 29 -1.6 70 70 NW 12 19 30.18 1022 10 16.0934 N/A
7:35 pm 19:35 Clear 38 3.1 29 -1.8 71 71 NW 13 20 30.18 1022 10 16.0934 N/A
7:55 pm 19:55 Clear 37 2.6 29 -1.9 73 73 NW 10 17 30.18 1022 10 16.0934 N/A
8:15 pm 20:15 Clear 35 1.9 28 -2.3 74 74 WNW 12 19 30.18 1022 10 16.0934 N/A
8:35 pm 20:35 Clear 34 1 28 -2.3 79 79 WNW 12 19 30.21 1023 10 16.0934 N/A
8:55 pm 20:55 Clear 33 0.5 28 -2.5 81 81 WNW 12 19 30.21 1023 10 16.0934 N/A
9:15 pm 21:15 Clear 32 0.2 27 -2.7 81 81 WNW 9 15 30.21 1023 10 16.0934 N/A
9:35 pm 21:35 Clear 32 0 28 -2.5 83 83 WNW 10 17 30.21 1023 10 16.0934 N/A
9:55 pm 21:55 Clear 33 0.8 28 -2.1 81 81 WNW 10 17 30.21 1023 10 16.0934 N/A
10:15 pm 22:15 Clear 34 1.1 28 -2 80 80 WNW 13 20 30.21 1023 10 16.0934 N/A
10:35 pm 22:35 Clear 34 1.2 28 -2 79 79 WNW 14 22 30.21 1023 10 16.0934 N/A
10:55 pm 22:55 Clear 34 1.1 29 -1.9 81 81 WNW 16 26 30.21 1023 10 16.0934 N/A
11:15 pm 23:15 Clear 35 1.5 28 -2 78 78 WNW 16 26 30.18 1022 10 16.0934 N/A
11:35 pm 23:35 Clear 33 0.6 28 -2.2 82 82 WNW 14 22 30.21 1023 10 16.0934 N/A
11:55 pm 23:55 Clear 33 0.5 28 -2.2 82 82 WNW 13 20 30.21 1023 10 16.0934 N/A

Powered by AerisWeather